STARLINK-35706 (67051 NORAD) Tracking and Keplerian Element Data

This shows tracking and keplerian element data for the satellite.

Feedback or suggestion? Click here.




ElementValue
Catalog67051
NameSTARLINK-35706
Epoch Orbit151
Epoch Day354.25003472
Epoch Year2025
RAAN136.1843
Inclination43.0004
Eccentricity0.0001742
Argument of Perigee261.5791
Mean Anonmoly7.9891
Mean Motion15.89342179
Decay Rate-0.014608
L11 67051U 25294X 25354.25003472 -.01460800 00000+0 -55882-2 0 9993
L22 67051 43.0004 136.1843 0001742 261.5791 7.9891 15.89342179 1513



Live tracking and technical data element details for STARLINK-35706 (NORAD 67051). STARLINK-35706 can be tracked NOW for your location showing map with azimuth and elevation plus other details from your city location.







IsCatalogInMostPopularTable: catalog: 67051, numindb: 18
Update: records affected: 1



GetName: 67051 STARLINK-35706

Hit Count: updated at: Fri, 16 Jan 2026 08:46:21 GMT